Location: Ergnies
(50.0854°N, 2.0375°E)
Time: 10:56:24
(UTC+00:00)

Molniya-1 - Pass Details

Date: 14 January 2026
Orbit: 368 x 13507 km, 62.9° (Epoch: 11 February)

Event Time Altitude Azimuth Distance (km) Brightness Sun altitude
Rises 06:47:15 0° 207° (SSW) 2,248 6.4 -9.1°
Reaches altitude 10° 06:48:44 10° 201° (SSW) 1,524 5.6 -8.9°
Maximum altitude 06:51:32 53° 122° (ESE) 745 4.5 -8.5°
Drops below altitude 10° 06:57:51 10° 46° (NE) 3,409 7.6 -7.5°
Sets 07:02:56 0° 44° (NE) 5,714 8.7 -6.8°
